Weather History for Trinity Center, CA

Change the Weather History Date:

Monday, December 24, 2012

  Actual Average (KMHS) Record (KMHS)
Temperature  
Mean Temperature 34 °F 35 °F  
Max Temperature 39 °F 44 °F 64 °F (1950)
Min Temperature 28 °F 26 °F 1 °F (1990)
Degree Days  
Heating Degree Days 32 30  
Month to date heating degree days 712  
Since 1 July heating degree days 2109  
Cooling Degree Days 0 0  
Month to date cooling degree days 0  
Year to date cooling degree days 288  
Moisture  
Dew Point 30 °F    
Average Humidity 92    
Maximum Humidity 100    
Minimum Humidity 65    
Precipitation  
Precipitation 0.00 in 0.26 in 3.21 in (1940)
Month to date precipitation 6.05  
Year to date precipitation 41.41  
Sea Level Pressure  
Sea Level Pressure 30.18 in    
Wind  
Wind Speed 1 mph (West)    
Max Wind Speed 6 mph    
Max Gust Speed -    
Visibility 8 miles    
Events      
T = Trace of Precipitation, MM = Missing Value Source: NWS Daily Summary

Daily Weather History Graph

Daily Weather History Graph

Search for Another Location

Airport:

Trip Planner

Search our weather history database for the weather conditions in past years. The results will help you decide how hot, cold, wet, or windy it might be!

Date:

Astronomy

Dec. 24, 2012 Rise Set
Actual Time 7:33 AM PST 4:47 PM PST
Civil Twilight 7:02 AM PST 5:18 PM PST
Nautical Twilight 6:28 AM PST 5:53 PM PST
Astronomical Twilight 5:54 AM PST 6:26 PM PST
Moon 2:19 PM PST (12/24) 4:16 AM PST (12/24)
Length of Visible Light 10h 16m
Length of Day
9h 13m
Waxing Gibbous, 89% of the Moon is Illuminated
Dec 24
Waxing Gibbous
Dec 28
Full
Jan 4
Last Quarter
Jan 11
New
Jan 18
First Quarter

Hourly Weather History & Observations

Time (PST) Temp. Windchill Dew Point Humidity Pressure Visibility Wind Dir Wind Speed Gust Speed Precip Events Conditions
12:10 AM 32.0 °F - 32.0 °F 100% 30.00 in 6.0 mi Calm Calm - N/A   Overcast
12:30 AM 32.0 °F 28.7 °F 32.0 °F 100% 30.01 in 1.8 mi West 3.5 mph - N/A   Overcast
12:50 AM 32.0 °F - 32.0 °F 100% 30.02 in 2.5 mi Calm Calm - N/A   Overcast
1:10 AM 32.0 °F 28.7 °F 32.0 °F 100% 30.03 in 4.0 mi West 3.5 mph - N/A   Overcast
1:30 AM 32.0 °F - 32.0 °F 100% 30.03 in 7.0 mi Calm Calm - N/A   Overcast
1:50 AM 32.0 °F - 32.0 °F 100% 30.04 in 4.0 mi Calm Calm - N/A   Overcast
2:10 AM 32.0 °F - 32.0 °F 100% 30.05 in 7.0 mi Calm Calm - N/A   Overcast
2:30 AM 32.0 °F - 32.0 °F 100% 30.06 in 4.0 mi Calm Calm - N/A   Overcast
2:50 AM 32.0 °F 28.7 °F 32.0 °F 100% 30.07 in 9.0 mi SW 3.5 mph - N/A   Overcast
3:10 AM 32.0 °F - 32.0 °F 100% 30.08 in 9.0 mi Calm Calm - N/A   Overcast
3:30 AM 32.0 °F - 32.0 °F 100% 30.09 in 5.0 mi Calm Calm - N/A   Overcast
3:50 AM 32.0 °F 28.7 °F 32.0 °F 100% 30.09 in 3.0 mi West 3.5 mph - N/A   Overcast
4:10 AM 32.0 °F 28.7 °F 32.0 °F 100% 30.10 in 8.0 mi NE 3.5 mph - N/A   Overcast
4:30 AM 32.0 °F 28.7 °F 32.0 °F 100% 30.11 in 10.0 mi North 3.5 mph - N/A   Overcast
4:50 AM 32.0 °F - 32.0 °F 100% 30.11 in 10.0 mi Calm Calm - N/A   Mostly Cloudy
5:10 AM 32.0 °F - 32.0 °F 100% 30.12 in 5.0 mi Calm Calm - N/A   Scattered Clouds
5:30 AM 32.0 °F 28.7 °F 32.0 °F 100% 30.13 in 10.0 mi WNW 3.5 mph - N/A   Mostly Cloudy
5:50 AM 32.0 °F - 30.2 °F 93% 30.14 in 10.0 mi Calm Calm - N/A   Mostly Cloudy
6:10 AM 32.0 °F - 32.0 °F 100% 30.15 in 10.0 mi Calm Calm - N/A   Overcast
6:30 AM 32.0 °F 28.7 °F 32.0 °F 100% 30.16 in 10.0 mi West 3.5 mph - N/A   Overcast
6:50 AM 32.0 °F - 32.0 °F 100% 30.17 in 10.0 mi Calm Calm - N/A   Overcast
7:10 AM 32.0 °F 28.7 °F 28.4 °F 87% 30.18 in 10.0 mi WNW 3.5 mph - N/A   Overcast
7:30 AM 32.0 °F 28.7 °F 28.4 °F 87% 30.19 in 10.0 mi WNW 3.5 mph - N/A   Overcast
7:50 AM 30.2 °F 24.3 °F 28.4 °F 93% 30.20 in 10.0 mi West 5.8 mph - N/A   Overcast
8:10 AM 30.2 °F 25.4 °F 28.4 °F 93% 30.22 in 10.0 mi West 4.6 mph - N/A   Overcast
8:30 AM 32.0 °F 28.7 °F 28.4 °F 87% 30.23 in 10.0 mi West 3.5 mph - N/A   Overcast
8:50 AM 32.0 °F 28.7 °F 28.4 °F 87% 30.24 in 10.0 mi West 3.5 mph - N/A   Overcast
9:10 AM 32.0 °F 27.5 °F 28.4 °F 87% 30.25 in 10.0 mi WNW 4.6 mph - N/A   Overcast
9:30 AM 32.0 °F - 28.4 °F 87% 30.26 in 10.0 mi Calm Calm - N/A   Overcast
9:50 AM 32.0 °F - 28.4 °F 87% 30.27 in 10.0 mi Calm Calm - N/A   Mostly Cloudy
10:10 AM 32.0 °F - 28.4 °F 87% 30.27 in 10.0 mi Calm Calm - N/A   Clear
10:30 AM 32.0 °F - 26.6 °F 80% 30.27 in 10.0 mi Calm Calm - N/A   Partly Cloudy
10:50 AM 33.8 °F 30.8 °F 26.6 °F 75% 30.26 in 10.0 mi SSE 3.5 mph - N/A   Partly Cloudy
11:10 AM 33.8 °F - 26.6 °F 75% 30.26 in 10.0 mi Calm Calm - N/A   Partly Cloudy
11:30 AM 35.6 °F - 28.4 °F 75% 30.25 in 10.0 mi Calm Calm - N/A   Clear
11:50 AM 35.6 °F - 28.4 °F 75% 30.25 in 10.0 mi Calm Calm - N/A   Clear
12:10 PM 35.6 °F - 28.4 °F 75% 30.25 in 10.0 mi Calm Calm - N/A   Clear
12:30 PM 37.4 °F - 28.4 °F 70% 30.25 in 10.0 mi Calm Calm - N/A   Clear
12:50 PM 37.4 °F - 28.4 °F 70% 30.23 in 10.0 mi Calm Calm - N/A   Clear
1:10 PM 37.4 °F - 28.4 °F 70% 30.22 in 10.0 mi Calm Calm - N/A   Clear
1:30 PM 37.4 °F - 28.4 °F 70% 30.22 in 10.0 mi Calm Calm - N/A   Clear
1:50 PM 37.4 °F - 28.4 °F 70% 30.22 in 10.0 mi Calm Calm - N/A   Clear
2:10 PM 39.2 °F - 28.4 °F 65% 30.21 in 10.0 mi Calm Calm - N/A   Clear
2:30 PM 37.4 °F - 28.4 °F 70% 30.22 in 10.0 mi Calm Calm - N/A   Clear
2:50 PM 37.4 °F - 28.4 °F 70% 30.21 in 10.0 mi Calm Calm - N/A   Clear
3:10 PM 35.6 °F - 32.0 °F 87% 30.22 in 10.0 mi Calm Calm - N/A   Clear
3:30 PM 35.6 °F - 32.0 °F 87% 30.22 in 10.0 mi Calm Calm - N/A   Clear
3:50 PM 33.8 °F 30.8 °F 32.0 °F 93% 30.21 in 10.0 mi West 3.5 mph - N/A   Clear
4:10 PM 33.8 °F - 32.0 °F 93% 30.22 in 10.0 mi Calm Calm - N/A   Clear
4:30 PM 33.8 °F 28.6 °F 32.0 °F 93% 30.22 in 10.0 mi WNW 5.8 mph - N/A   Clear
4:50 PM 32.0 °F 28.7 °F 32.0 °F 100% 30.21 in 10.0 mi West 3.5 mph - N/A   Clear
5:10 PM 32.0 °F - 32.0 °F 100% 30.21 in 10.0 mi Calm Calm - N/A   Partly Cloudy
5:30 PM 32.0 °F - 32.0 °F 100% 30.22 in 9.0 mi Calm Calm - N/A   Scattered Clouds
5:50 PM 32.0 °F - 32.0 °F 100% 30.22 in 10.0 mi Calm Calm - N/A   Mostly Cloudy
6:10 PM 32.0 °F - 32.0 °F 100% 30.22 in 9.0 mi Calm Calm - N/A   Mostly Cloudy
6:30 PM 32.0 °F - 32.0 °F 100% 30.22 in 4.0 mi Calm Calm - N/A   Mostly Cloudy
6:50 PM 32.0 °F - 32.0 °F 100% 30.22 in 8.0 mi Calm Calm - N/A   Mostly Cloudy
7:10 PM 32.0 °F - 32.0 °F 100% 30.22 in 8.0 mi Calm Calm - N/A   Partly Cloudy
7:30 PM 30.2 °F 26.7 °F 30.2 °F 100% 30.21 in 3.0 mi West 3.5 mph - N/A   Clear
7:50 PM 30.2 °F 26.7 °F 30.2 °F 100% 30.21 in 5.0 mi NNW 3.5 mph - N/A   Partly Cloudy
8:10 PM 30.2 °F 24.3 °F 30.2 °F 100% 30.21 in 10.0 mi West 5.8 mph - N/A   Scattered Clouds
8:30 PM 30.2 °F - 30.2 °F 100% 30.21 in 6.0 mi Calm Calm - N/A   Mostly Cloudy
8:50 PM 28.4 °F - 28.4 °F 100% 30.21 in 7.0 mi Calm Calm - N/A   Scattered Clouds
9:10 PM 30.2 °F - 28.4 °F 93% 30.21 in 2.5 mi Calm Calm - N/A   Mostly Cloudy
9:30 PM 30.2 °F - 30.2 °F 100% 30.20 in 3.0 mi Calm Calm - N/A   Overcast
9:50 PM 30.2 °F 26.7 °F 30.2 °F 100% 30.20 in 5.0 mi West 3.5 mph - N/A   Overcast
10:10 PM 32.0 °F 28.7 °F 30.2 °F 93% 30.20 in 10.0 mi West 3.5 mph - N/A   Mostly Cloudy
10:30 PM 32.0 °F - 30.2 °F 93% 30.20 in 5.0 mi Calm Calm - N/A   Scattered Clouds
10:50 PM 32.0 °F - 30.2 °F 93% 30.19 in 6.0 mi Calm Calm - N/A   Mostly Cloudy
11:10 PM 32.0 °F - 30.2 °F 93% 30.19 in 5.0 mi Calm Calm - N/A   Overcast
11:30 PM 32.0 °F - 30.2 °F 93% 30.18 in 9.0 mi Calm Calm - N/A   Mostly Cloudy
11:50 PM 32.0 °F 28.7 °F 30.2 °F 93% 30.18 in 7.0 mi West 3.5 mph - N/A   Mostly Cloudy